Time,TemperatureF,DewpointF,PressureIn,WindDirection,WindDirectionDegrees,WindSpeedMPH,WindSpeedGustMPH,Humidity,HourlyPrecipIn,Conditions,Clouds,dailyrainin,SoftwareType,DateUTC
2013-05-04 06:08:00,59.1,55.2,29.76,South,173,0.0,0.0,87,0.00,,,0.01,Wunderground v.1.15,2013-05-04 13:08:00,
2013-05-04 06:10:00,59.1,55.2,29.76,South,173,0.0,1.0,87,0.00,,,0.01,Wunderground v.1.15,2013-05-04 13:10:00,
2013-05-04 06:12:00,59.1,55.2,29.77,South,173,0.0,1.0,87,0.00,,,0.01,Wunderground v.1.15,2013-05-04 13:12:00,
2013-05-04 06:14:00,59.1,55.2,29.77,South,173,0.0,1.0,87,0.00,,,0.01,Wunderground v.1.15,2013-05-04 13:14:00,
2013-05-04 06:20:00,59.1,55.2,29.77,South,173,0.0,0.0,87,0.00,,,0.01,Wunderground v.1.15,2013-05-04 13:20:00,
2013-05-04 06:22:00,59.1,55.2,29.77,South,173,0.0,0.0,87,0.00,,,0.01,Wunderground v.1.15,2013-05-04 13:22:00,
2013-05-04 06:24:00,59.1,55.2,29.77,South,173,0.0,0.0,87,0.00,,,0.01,Wunderground v.1.15,2013-05-04 13:24:00,
2013-05-04 06:26:00,59.2,55.3,29.77,South,173,0.0,0.0,87,0.00,,,0.01,Wunderground v.1.15,2013-05-04 13:26:00,
2013-05-04 06:28:00,59.2,55.3,29.77,South,177,0.0,0.0,87,0.00,,,0.01,Wunderground v.1.15,2013-05-04 13:28:00,
2013-05-04 06:34:00,59.4,55.5,29.78,South,173,1.0,1.0,87,0.00,,,0.01,Wunderground v.1.15,2013-05-04 13:34:00,
2013-05-04 06:36:00,59.4,55.5,29.77,SSE,168,1.0,1.0,87,0.00,,,0.01,Wunderground v.1.15,2013-05-04 13:36:00,
2013-05-04 06:40:00,59.5,55.6,29.78,SSE,159,0.0,0.0,87,0.00,,,0.01,Wunderground v.1.15,2013-05-04 13:40:00,
2013-05-04 06:44:00,59.6,55.7,29.78,SSE,157,0.0,0.0,87,0.00,,,0.01,Wunderground v.1.15,2013-05-04 13:44:00,
2013-05-04 06:46:00,59.6,55.7,29.78,SSE,157,0.0,0.0,87,0.00,,,0.01,Wunderground v.1.15,2013-05-04 13:46:00,
2013-05-04 06:48:00,59.7,55.8,29.78,South,178,0.0,3.0,87,0.00,,,0.01,Wunderground v.1.15,2013-05-04 13:48:00,
2013-05-04 06:50:00,59.8,55.9,29.77,SSE,167,1.0,2.0,87,0.00,,,0.01,Wunderground v.1.15,2013-05-04 13:50:00,
2013-05-04 06:52:00,59.9,56.0,29.78,SSE,167,1.0,2.0,87,0.00,,,0.01,Wunderground v.1.15,2013-05-04 13:52:00,
2013-05-04 06:54:00,59.9,56.0,29.78,SSE,155,1.0,2.0,87,0.00,,,0.01,Wunderground v.1.15,2013-05-04 13:54:00,
2013-05-04 06:58:00,60.2,56.3,29.78,SSE,147,1.0,3.0,87,0.00,,,0.01,Wunderground v.1.15,2013-05-04 13:58:00,
2013-05-04 07:00:00,60.3,56.4,29.78,SSE,148,1.0,1.0,87,0.00,,,0.01,Wunderground v.1.15,2013-05-04 14:00:00,
2013-05-04 07:02:00,60.3,56.4,29.78,South,175,1.0,3.0,87,0.00,,,0.01,Wunderground v.1.15,2013-05-04 14:02:00,
2013-05-04 07:06:00,60.5,56.6,29.78,ESE,103,1.0,3.0,87,0.00,,,0.01,Wunderground v.1.15,2013-05-04 14:06:00,
2013-05-04 07:08:00,60.5,56.6,29.78,SSE,160,1.0,3.0,87,0.00,,,0.01,Wunderground v.1.15,2013-05-04 14:08:00,
2013-05-04 07:10:00,60.6,56.7,29.78,SE,131,1.0,1.0,87,0.00,,,0.01,Wunderground v.1.15,2013-05-04 14:10:00,
2013-05-04 07:12:00,60.7,56.8,29.78,SE,130,1.0,1.0,87,0.00,,,0.01,Wunderground v.1.15,2013-05-04 14:12:00,
2013-05-04 07:16:00,60.9,57.0,29.78,SE,126,1.0,1.0,87,0.00,,,0.01,Wunderground v.1.15,2013-05-04 14:16:00,
2013-05-04 07:18:00,61.1,56.9,29.78,SE,126,0.0,1.0,86,0.00,,,0.01,Wunderground v.1.15,2013-05-04 14:18:00,
2013-05-04 07:20:00,61.2,57.3,29.78,SE,129,0.0,1.0,87,0.00,,,0.01,Wunderground v.1.15,2013-05-04 14:20:00,
2013-05-04 07:22:00,61.3,57.4,29.78,SE,135,0.0,1.0,87,0.00,,,0.01,Wunderground v.1.15,2013-05-04 14:22:00,
2013-05-04 07:24:00,61.4,57.2,29.78,South,188,1.0,2.0,86,0.00,,,0.01,Wunderground v.1.15,2013-05-04 14:24:00,
2013-05-04 07:26:00,61.4,57.2,29.78,South,183,1.0,2.0,86,0.00,,,0.01,Wunderground v.1.15,2013-05-04 14:26:00,
2013-05-04 07:28:00,61.4,57.2,29.78,South,176,1.0,2.0,86,0.00,,,0.01,Wunderground v.1.15,2013-05-04 14:28:00,
2013-05-04 07:32:00,61.4,56.8,29.79,SSE,162,1.0,2.0,85,0.00,,,0.01,Wunderground v.1.15,2013-05-04 14:32:00,
2013-05-04 07:34:00,61.4,56.8,29.79,SSE,157,1.0,3.0,85,0.00,,,0.01,Wunderground v.1.15,2013-05-04 14:34:00,
2013-05-04 07:36:00,61.5,56.9,29.79,South,177,2.0,3.0,85,0.00,,,0.01,Wunderground v.1.15,2013-05-04 14:36:00,
2013-05-04 07:40:00,61.7,57.1,29.79,SE,142,2.0,2.0,85,0.00,,,0.01,Wunderground v.1.15,2013-05-04 14:40:00,
2013-05-04 07:42:00,61.8,57.2,29.79,South,174,2.0,2.0,85,0.00,,,0.01,Wunderground v.1.15,2013-05-04 14:42:00,
2013-05-04 07:44:00,62.0,57.4,29.79,East,90,2.0,2.0,85,0.00,,,0.01,Wunderground v.1.15,2013-05-04 14:44:00,
2013-05-04 07:48:00,62.3,57.4,29.79,SE,144,2.0,2.0,84,0.00,,,0.01,Wunderground v.1.15,2013-05-04 14:48:00,
2013-05-04 07:50:00,62.4,57.5,29.79,SSE,165,2.0,4.0,84,0.00,,,0.01,Wunderground v.1.15,2013-05-04 14:50:00,
2013-05-04 07:52:00,62.5,57.6,29.79,SSW,193,2.0,4.0,84,0.00,,,0.01,Wunderground v.1.15,2013-05-04 14:52:00,
2013-05-04 07:56:00,62.7,57.5,29.79,South,179,2.0,5.0,83,0.00,,,0.01,Wunderground v.1.15,2013-05-04 14:56:00,
2013-05-04 08:00:00,62.9,57.7,29.79,South,190,2.0,2.0,83,0.00,,,0.01,Wunderground v.1.15,2013-05-04 15:00:00,
2013-05-04 08:02:00,62.9,57.3,29.79,South,171,2.0,5.0,82,0.00,,,0.01,Wunderground v.1.15,2013-05-04 15:02:00,
2013-05-04 08:04:00,62.8,57.2,29.79,SSW,200,3.0,5.0,82,0.00,,,0.01,Wunderground v.1.15,2013-05-04 15:04:00,
2013-05-04 08:06:00,62.7,57.1,29.79,SSE,164,3.0,5.0,82,0.00,,,0.01,Wunderground v.1.15,2013-05-04 15:06:00,
2013-05-04 08:08:00,62.7,57.1,29.79,SSW,197,3.0,5.0,82,0.00,,,0.01,Wunderground v.1.15,2013-05-04 15:08:00,
2013-05-04 08:10:00,62.7,57.1,29.79,South,180,2.0,6.0,82,0.00,,,0.01,Wunderground v.1.15,2013-05-04 15:10:00,
2013-05-04 08:12:00,62.7,57.1,29.79,South,180,2.0,6.0,82,0.00,,,0.01,Wunderground v.1.15,2013-05-04 15:12:00,
2013-05-04 08:18:00,62.8,57.2,29.79,South,180,3.0,6.0,82,0.00,,,0.01,Wunderground v.1.15,2013-05-04 15:18:00,
2013-05-04 08:20:00,63.0,57.4,29.79,SSE,165,3.0,3.0,82,0.00,,,0.01,Wunderground v.1.15,2013-05-04 15:20:00,
2013-05-04 08:22:00,63.1,57.5,29.79,ESE,103,2.0,3.0,82,0.00,,,0.01,Wunderground v.1.15,2013-05-04 15:22:00,
2013-05-04 08:24:00,63.4,57.5,29.79,ESE,123,2.0,3.0,81,0.00,,,0.01,Wunderground v.1.15,2013-05-04 15:24:00,
2013-05-04 08:26:00,63.6,57.7,29.79,South,170,2.0,3.0,81,0.00,,,0.01,Wunderground v.1.15,2013-05-04 15:26:00,
2013-05-04 08:28:00,63.8,57.5,29.79,SSW,192,2.0,3.0,80,0.00,,,0.01,Wunderground v.1.15,2013-05-04 15:28:00,
2013-05-04 08:30:00,63.9,57.6,29.79,South,175,1.0,5.0,80,0.00,,,0.01,Wunderground v.1.15,2013-05-04 15:30:00,
2013-05-04 08:34:00,64.0,57.4,29.79,ESE,109,2.0,5.0,79,0.00,,,0.01,Wunderground v.1.15,2013-05-04 15:34:00,
2013-05-04 08:36:00,64.2,57.5,29.79,ESE,103,2.0,5.0,79,0.00,,,0.01,Wunderground v.1.15,2013-05-04 15:36:00,
2013-05-04 08:40:00,64.6,57.6,29.79,South,190,3.0,10.0,78,0.00,,,0.01,Wunderground v.1.15,2013-05-04 15:40:00,
2013-05-04 08:42:00,64.6,57.2,29.79,SSW,194,4.0,10.0,77,0.00,,,0.01,Wunderground v.1.15,2013-05-04 15:42:00,
2013-05-04 08:44:00,64.6,57.2,29.79,SE,140,3.0,10.0,77,0.00,,,0.01,Wunderground v.1.15,2013-05-04 15:44:00,
2013-05-04 08:46:00,64.6,57.2,29.79,South,175,3.0,10.0,77,0.00,,,0.01,Wunderground v.1.15,2013-05-04 15:46:00,
2013-05-04 08:48:00,64.8,57.4,29.79,East,86,3.0,10.0,77,0.00,,,0.01,Wunderground v.1.15,2013-05-04 15:48:00,
2013-05-04 08:50:00,65.0,57.2,29.79,SSE,163,3.0,3.0,76,0.00,,,0.01,Wunderground v.1.15,2013-05-04 15:50:00,
2013-05-04 08:52:00,65.2,57.4,29.79,SE,134,3.0,3.0,76,0.00,,,0.01,Wunderground v.1.15,2013-05-04 15:52:00,
2013-05-04 08:54:00,65.4,57.6,29.79,ESE,107,3.0,3.0,76,0.00,,,0.01,Wunderground v.1.15,2013-05-04 15:54:00,
2013-05-04 08:58:00,65.8,57.7,29.79,SE,125,3.0,6.0,75,0.00,,,0.01,Wunderground v.1.15,2013-05-04 15:58:00,
2013-05-04 09:00:00,65.9,57.4,29.79,SSE,165,3.0,3.0,74,0.00,,,0.01,Wunderground v.1.15,2013-05-04 16:00:00,
2013-05-04 09:04:00,66.1,57.6,29.79,SE,136,3.0,3.0,74,0.00,,,0.01,Wunderground v.1.15,2013-05-04 16:04:00,
2013-05-04 09:08:00,66.4,57.9,29.79,SSW,205,2.0,3.0,74,0.00,,,0.01,Wunderground v.1.15,2013-05-04 16:08:00,
2013-05-04 09:10:00,66.3,57.4,29.79,South,171,3.0,3.0,73,0.00,,,0.01,Wunderground v.1.15,2013-05-04 16:10:00,
2013-05-04 09:14:00,66.3,57.8,29.79,ESE,123,3.0,8.0,74,0.00,,,0.01,Wunderground v.1.15,2013-05-04 16:14:00,
2013-05-04 09:20:00,66.2,58.0,29.79,East,96,3.0,3.0,75,0.00,,,0.01,Wunderground v.1.15,2013-05-04 16:20:00,
2013-05-04 09:22:00,66.2,57.7,29.79,South,186,3.0,3.0,74,0.00,,,0.01,Wunderground v.1.15,2013-05-04 16:22:00,
2013-05-04 09:24:00,66.2,57.3,29.79,SSE,167,3.0,4.0,73,0.00,,,0.01,Wunderground v.1.15,2013-05-04 16:24:00,
2013-05-04 09:26:00,66.2,57.3,29.79,SSE,148,3.0,4.0,73,0.00,,,0.01,Wunderground v.1.15,2013-05-04 16:26:00,
2013-05-04 09:28:00,66.2,57.3,29.79,ESE,123,3.0,4.0,73,0.00,,,0.01,Wunderground v.1.15,2013-05-04 16:28:00,
2013-05-04 09:34:00,66.5,57.6,29.79,ESE,113,3.0,4.0,73,0.00,,,0.01,Wunderground v.1.15,2013-05-04 16:34:00,
2013-05-04 09:36:00,66.5,57.2,29.79,South,185,3.0,4.0,72,0.00,,,0.01,Wunderground v.1.15,2013-05-04 16:36:00,
2013-05-04 09:38:00,66.6,57.7,29.79,East,92,3.0,4.0,73,0.00,,,0.01,Wunderground v.1.15,2013-05-04 16:38:00,
2013-05-04 09:44:00,67.0,58.1,29.79,South,177,3.0,4.0,73,0.00,,,0.01,Wunderground v.1.15,2013-05-04 16:44:00,
2013-05-04 09:46:00,67.0,58.1,29.79,East,87,3.0,4.0,73,0.00,,,0.01,Wunderground v.1.15,2013-05-04 16:46:00,
2013-05-04 09:48:00,67.0,57.7,29.79,ESE,118,3.0,4.0,72,0.00,,,0.01,Wunderground v.1.15,2013-05-04 16:48:00,
2013-05-04 09:52:00,67.2,57.5,29.79,East,101,4.0,6.0,71,0.00,,,0.01,Wunderground v.1.15,2013-05-04 16:52:00,
2013-05-04 09:54:00,67.4,57.7,29.79,ESE,103,4.0,6.0,71,0.00,,,0.01,Wunderground v.1.15,2013-05-04 16:54:00,
2013-05-04 09:56:00,67.5,57.8,29.80,SSE,156,4.0,6.0,71,0.00,,,0.01,Wunderground v.1.15,2013-05-04 16:56:00,
2013-05-04 10:00:00,67.1,57.8,29.79,SSE,163,5.0,5.0,72,0.00,,,0.01,Wunderground v.1.15,2013-05-04 17:00:00,
2013-05-04 10:02:00,67.0,57.7,29.79,SSW,195,5.0,7.0,72,0.00,,,0.01,Wunderground v.1.15,2013-05-04 17:02:00,
2013-05-04 10:06:00,67.2,58.6,29.79,East,86,4.0,7.0,74,0.00,,,0.01,Wunderground v.1.15,2013-05-04 17:06:00,
2013-05-04 10:10:00,67.5,58.5,29.80,SSW,199,4.0,4.0,73,0.00,,,0.01,Wunderground v.1.15,2013-05-04 17:10:00,
2013-05-04 10:18:00,67.2,58.2,29.80,SW,221,5.0,5.0,73,0.00,,,0.01,Wunderground v.1.15,2013-05-04 17:18:00,
2013-05-04 10:20:00,67.2,58.6,29.80,South,181,4.0,4.0,74,0.00,,,0.01,Wunderground v.1.15,2013-05-04 17:20:00,
2013-05-04 10:24:00,67.4,58.4,29.80,SSW,194,5.0,13.0,73,0.00,,,0.01,Wunderground v.1.15,2013-05-04 17:24:00,
2013-05-04 10:26:00,67.4,58.4,29.80,South,186,4.0,13.0,73,0.00,,,0.01,Wunderground v.1.15,2013-05-04 17:26:00,
2013-05-04 10:28:00,67.3,58.3,29.80,South,188,4.0,13.0,73,0.00,,,0.01,Wunderground v.1.15,2013-05-04 17:28:00,
2013-05-04 10:32:00,67.0,58.1,29.80,SE,134,6.0,10.0,73,0.00,,,0.01,Wunderground v.1.15,2013-05-04 17:32:00,
2013-05-04 10:34:00,66.7,57.8,29.80,South,181,6.0,10.0,73,0.00,,,0.01,Wunderground v.1.15,2013-05-04 17:34:00,
2013-05-04 10:40:00,66.8,57.9,29.80,South,187,6.0,6.0,73,0.00,,,0.01,Wunderground v.1.15,2013-05-04 17:40:00,
2013-05-04 10:42:00,66.8,57.9,29.80,SSW,197,5.0,6.0,73,0.00,,,0.01,Wunderground v.1.15,2013-05-04 17:42:00,
2013-05-04 10:44:00,66.8,57.9,29.80,South,182,5.0,6.0,73,0.00,,,0.01,Wunderground v.1.15,2013-05-04 17:44:00,
2013-05-04 10:46:00,66.8,57.9,29.80,South,170,5.0,6.0,73,0.00,,,0.01,Wunderground v.1.15,2013-05-04 17:46:00,
2013-05-04 10:48:00,66.8,57.9,29.80,SSE,158,5.0,6.0,73,0.00,,,0.01,Wunderground v.1.15,2013-05-04 17:48:00,
2013-05-04 10:50:00,66.9,58.0,29.80,South,176,5.0,5.0,73,0.00,,,0.01,Wunderground v.1.15,2013-05-04 17:50:00,
2013-05-04 10:52:00,67.1,58.2,29.80,SSE,150,5.0,5.0,73,0.00,,,0.01,Wunderground v.1.15,2013-05-04 17:52:00,
2013-05-04 10:56:00,67.4,58.1,29.80,SW,231,4.0,11.0,72,0.00,,,0.01,Wunderground v.1.15,2013-05-04 17:56:00,
2013-05-04 10:58:00,67.4,57.7,29.80,SSE,152,5.0,11.0,71,0.00,,,0.01,Wunderground v.1.15,2013-05-04 17:58:00,
2013-05-04 11:00:00,67.3,58.0,29.80,SSE,163,4.0,4.0,72,0.00,,,0.01,Wunderground v.1.15,2013-05-04 18:00:00,
2013-05-04 11:42:00,67.2,57.5,29.79,South,180,6.0,7.0,71,0.00,,,0.01,Wunderground v.1.15,2013-05-04 18:42:00,
2013-05-04 11:44:00,67.2,57.5,29.79,SSW,197,6.0,7.0,71,0.00,,,0.01,Wunderground v.1.15,2013-05-04 18:44:00,
2013-05-04 11:48:00,67.0,57.7,29.79,SSW,206,6.0,9.0,72,0.00,,,0.01,Wunderground v.1.15,2013-05-04 18:48:00,
2013-05-04 11:50:00,67.1,57.8,29.79,South,187,6.0,9.0,72,0.00,,,0.01,Wunderground v.1.15,2013-05-04 18:50:00,
2013-05-04 11:56:00,67.8,58.4,29.79,South,173,5.0,7.0,72,0.00,,,0.01,Wunderground v.1.15,2013-05-04 18:56:00,
2013-05-04 11:58:00,67.9,58.1,29.79,South,183,5.0,7.0,71,0.00,,,0.01,Wunderground v.1.15,2013-05-04 18:58:00,
2013-05-04 12:00:00,67.9,58.1,29.79,WSW,248,5.0,6.0,71,0.00,,,0.01,Wunderground v.1.15,2013-05-04 19:00:00,
2013-05-04 12:02:00,67.7,58.0,29.79,SW,220,6.0,6.0,71,0.00,,,0.01,Wunderground v.1.15,2013-05-04 19:02:00,
2013-05-04 12:08:00,67.6,57.9,29.79,SW,227,6.0,12.0,71,0.00,,,0.01,Wunderground v.1.15,2013-05-04 19:08:00,
2013-05-04 12:10:00,67.5,57.4,29.79,SSW,194,7.0,12.0,70,0.00,,,0.01,Wunderground v.1.15,2013-05-04 19:10:00,
2013-05-04 12:14:00,67.5,57.8,29.79,SE,132,7.0,12.0,71,0.00,,,0.01,Wunderground v.1.15,2013-05-04 19:14:00,
2013-05-04 12:18:00,67.9,57.8,29.79,SSW,200,6.0,12.0,70,0.00,,,0.01,Wunderground v.1.15,2013-05-04 19:18:00,
2013-05-04 12:22:00,67.8,58.1,29.78,SE,144,6.0,6.0,71,0.00,,,0.01,Wunderground v.1.15,2013-05-04 19:22:00,
2013-05-04 12:26:00,68.1,58.3,29.78,SW,225,5.0,9.0,71,0.00,,,0.01,Wunderground v.1.15,2013-05-04 19:26:00,
2013-05-04 12:28:00,68.3,58.1,29.78,SSW,199,5.0,9.0,70,0.00,,,0.01,Wunderground v.1.15,2013-05-04 19:28:00,
2013-05-04 12:30:00,68.3,58.1,29.78,SSE,165,5.0,5.0,70,0.00,,,0.01,Wunderground v.1.15,2013-05-04 19:30:00,
2013-05-04 12:36:00,68.3,58.5,29.78,South,188,5.0,6.0,71,0.00,,,0.01,Wunderground v.1.15,2013-05-04 19:36:00,
2013-05-04 12:38:00,68.5,58.3,29.78,South,178,5.0,10.0,70,0.00,,,0.01,Wunderground v.1.15,2013-05-04 19:38:00,
2013-05-04 12:40:00,68.7,58.1,29.78,SSE,161,4.0,4.0,69,0.00,,,0.01,Wunderground v.1.15,2013-05-04 19:40:00,
2013-05-04 12:42:00,68.8,58.2,29.78,SSE,166,4.0,5.0,69,0.00,,,0.01,Wunderground v.1.15,2013-05-04 19:42:00,
2013-05-04 12:44:00,68.9,57.9,29.78,SSE,155,4.0,7.0,68,0.00,,,0.01,Wunderground v.1.15,2013-05-04 19:44:00,
2013-05-04 13:34:00,67.9,57.8,29.77,SSW,202,5.0,5.0,70,0.00,,,0.01,Wunderground v.1.15,2013-05-04 20:34:00,
2013-05-04 13:36:00,67.9,57.8,29.77,SSW,197,5.0,9.0,70,0.00,,,0.01,Wunderground v.1.15,2013-05-04 20:36:00,
2013-05-04 13:38:00,67.8,57.7,29.77,SSW,202,6.0,9.0,70,0.00,,,0.01,Wunderground v.1.15,2013-05-04 20:38:00,
2013-05-04 13:40:00,67.7,58.0,29.77,South,176,6.0,9.0,71,0.00,,,0.01,Wunderground v.1.15,2013-05-04 20:40:00,
2013-05-04 13:42:00,67.8,58.1,29.77,SE,143,5.0,9.0,71,0.00,,,0.01,Wunderground v.1.15,2013-05-04 20:42:00,
2013-05-04 13:44:00,67.9,58.1,29.77,South,176,6.0,7.0,71,0.00,,,0.01,Wunderground v.1.15,2013-05-04 20:44:00,
2013-05-04 13:46:00,67.9,57.8,29.77,SSW,195,6.0,7.0,70,0.00,,,0.01,Wunderground v.1.15,2013-05-04 20:46:00,
2013-05-04 13:48:00,68.1,58.3,29.77,West,266,5.0,7.0,71,0.00,,,0.01,Wunderground v.1.15,2013-05-04 20:48:00,
2013-05-04 13:50:00,68.5,58.3,29.77,SSE,166,5.0,7.0,70,0.00,,,0.01,Wunderground v.1.15,2013-05-04 20:50:00,
2013-05-04 13:54:00,69.0,58.8,29.77,SSE,163,4.0,5.0,70,0.00,,,0.01,Wunderground v.1.15,2013-05-04 20:54:00,
2013-05-04 13:56:00,69.3,58.7,29.77,SSE,154,4.0,5.0,69,0.00,,,0.01,Wunderground v.1.15,2013-05-04 20:56:00,
2013-05-04 13:58:00,69.6,58.6,29.77,SSW,204,3.0,5.0,68,0.00,,,0.01,Wunderground v.1.15,2013-05-04 20:58:00,
2013-05-04 14:02:00,69.7,58.7,29.77,SSE,161,3.0,11.0,68,0.00,,,0.00,Wunderground v.1.15,2013-05-04 21:02:00,
2013-05-04 14:04:00,69.5,58.5,29.77,SSW,202,4.0,11.0,68,0.00,,,0.00,Wunderground v.1.15,2013-05-04 21:04:00,
2013-05-04 14:10:00,68.9,58.3,29.76,SE,128,5.0,5.0,69,0.00,,,0.00,Wunderground v.1.15,2013-05-04 21:10:00,
2013-05-04 14:12:00,69.0,58.4,29.76,SSE,151,4.0,5.0,69,0.00,,,0.00,Wunderground v.1.15,2013-05-04 21:12:00,
2013-05-04 14:14:00,69.2,58.6,29.76,SSE,160,4.0,5.0,69,0.00,,,0.00,Wunderground v.1.15,2013-05-04 21:14:00,
2013-05-04 14:18:00,69.2,58.6,29.76,SSW,208,4.0,6.0,69,0.00,,,0.00,Wunderground v.1.15,2013-05-04 21:18:00,
2013-05-04 14:22:00,69.4,59.2,29.76,SSE,159,4.0,4.0,70,0.00,,,0.00,Wunderground v.1.15,2013-05-04 21:22:00,
2013-05-04 14:24:00,69.4,58.8,29.76,SSW,213,4.0,4.0,69,0.00,,,0.00,Wunderground v.1.15,2013-05-04 21:24:00,
2013-05-04 14:28:00,69.2,58.2,29.76,SE,138,5.0,5.0,68,0.00,,,0.00,Wunderground v.1.15,2013-05-04 21:28:00,
2013-05-04 14:32:00,69.6,58.6,29.76,East,88,5.0,6.0,68,0.00,,,0.00,Wunderground v.1.15,2013-05-04 21:32:00,
2013-05-04 14:34:00,69.7,58.7,29.76,SSE,163,4.0,6.0,68,0.00,,,0.00,Wunderground v.1.15,2013-05-04 21:34:00,
2013-05-04 14:36:00,69.8,58.8,29.76,SSE,155,4.0,8.0,68,0.00,,,0.00,Wunderground v.1.15,2013-05-04 21:36:00,
2013-05-04 14:40:00,69.9,58.9,29.75,SW,228,4.0,4.0,68,0.00,,,0.00,Wunderground v.1.15,2013-05-04 21:40:00,
2013-05-04 14:42:00,69.9,58.9,29.75,SE,138,4.0,6.0,68,0.00,,,0.00,Wunderground v.1.15,2013-05-04 21:42:00,
2013-05-04 14:46:00,69.7,58.7,29.75,SE,132,4.0,6.0,68,0.00,,,0.00,Wunderground v.1.15,2013-05-04 21:46:00,
2013-05-04 14:50:00,69.8,58.3,29.75,South,175,4.0,5.0,67,0.00,,,0.00,Wunderground v.1.15,2013-05-04 21:50:00,
2013-05-04 14:56:00,69.9,58.9,29.75,SSE,157,4.0,6.0,68,0.00,,,0.00,Wunderground v.1.15,2013-05-04 21:56:00,
2013-05-04 14:58:00,69.9,58.9,29.75,SSW,202,4.0,6.0,68,0.00,,,0.00,Wunderground v.1.15,2013-05-04 21:58:00,
2013-05-04 15:02:00,70.2,58.7,29.75,SSW,205,4.0,4.0,67,0.00,,,0.00,Wunderground v.1.15,2013-05-04 22:02:00,
2013-05-04 15:04:00,70.0,58.5,29.75,ESE,118,4.0,5.0,67,0.00,,,0.00,Wunderground v.1.15,2013-05-04 22:04:00,
2013-05-04 15:06:00,70.0,58.5,29.75,SSE,168,4.0,5.0,67,0.00,,,0.00,Wunderground v.1.15,2013-05-04 22:06:00,
2013-05-04 15:10:00,70.1,59.0,29.75,South,188,4.0,4.0,68,0.00,,,0.00,Wunderground v.1.15,2013-05-04 22:10:00,
2013-05-04 15:14:00,69.7,58.3,29.75,SSE,167,4.0,9.0,67,0.00,,,0.00,Wunderground v.1.15,2013-05-04 22:14:00,
2013-05-04 15:16:00,69.7,59.1,29.75,South,171,4.0,9.0,69,0.00,,,0.00,Wunderground v.1.15,2013-05-04 22:16:00,
2013-05-04 15:20:00,69.8,58.8,29.75,South,180,4.0,5.0,68,0.00,,,0.00,Wunderground v.1.15,2013-05-04 22:20:00,
2013-05-04 15:22:00,69.8,58.3,29.75,South,182,5.0,6.0,67,0.00,,,0.00,Wunderground v.1.15,2013-05-04 22:22:00,
2013-05-04 15:28:00,69.5,58.5,29.75,SSW,207,5.0,6.0,68,0.00,,,0.00,Wunderground v.1.15,2013-05-04 22:28:00,
2013-05-04 15:30:00,69.4,58.8,29.75,SE,131,5.0,5.0,69,0.00,,,0.00,Wunderground v.1.15,2013-05-04 22:30:00,
2013-05-04 15:34:00,69.4,58.8,29.75,SSW,192,5.0,6.0,69,0.00,,,0.00,Wunderground v.1.15,2013-05-04 22:34:00,
2013-05-04 15:38:00,69.1,58.5,29.75,SE,142,5.0,6.0,69,0.00,,,0.00,Wunderground v.1.15,2013-05-04 22:38:00,
2013-05-04 15:40:00,69.0,58.4,29.75,SSW,194,5.0,5.0,69,0.00,,,0.00,Wunderground v.1.15,2013-05-04 22:40:00,
2013-05-04 15:42:00,69.0,58.4,29.75,SE,131,5.0,5.0,69,0.00,,,0.00,Wunderground v.1.15,2013-05-04 22:42:00,
2013-05-04 15:44:00,69.1,58.5,29.75,South,187,5.0,5.0,69,0.00,,,0.00,Wunderground v.1.15,2013-05-04 22:44:00,
2013-05-04 15:48:00,68.8,58.2,29.75,South,176,6.0,10.0,69,0.00,,,0.00,Wunderground v.1.15,2013-05-04 22:48:00,
2013-05-04 15:50:00,68.7,58.1,29.75,SSW,200,5.0,7.0,69,0.00,,,0.00,Wunderground v.1.15,2013-05-04 22:50:00,
2013-05-04 15:52:00,68.6,58.4,29.75,WSW,249,6.0,7.0,70,0.00,,,0.00,Wunderground v.1.15,2013-05-04 22:52:00,
2013-05-04 15:58:00,69.0,58.4,29.75,South,169,5.0,7.0,69,0.00,,,0.00,Wunderground v.1.15,2013-05-04 22:58:00,
2013-05-04 16:00:00,69.1,58.5,29.75,South,169,5.0,5.0,69,0.00,,,0.00,Wunderground v.1.15,2013-05-04 23:00:00,
2013-05-04 16:02:00,69.1,58.5,29.75,South,173,4.0,5.0,69,0.00,,,0.00,Wunderground v.1.15,2013-05-04 23:02:00,
2013-05-04 16:06:00,68.9,59.1,29.75,SSW,196,4.0,7.0,71,0.00,,,0.00,Wunderground v.1.15,2013-05-04 23:06:00,
2013-05-04 16:08:00,68.9,58.7,29.75,WSW,238,5.0,7.0,70,0.00,,,0.00,Wunderground v.1.15,2013-05-04 23:08:00,
2013-05-04 16:12:00,68.6,58.4,29.75,SE,135,5.0,9.0,70,0.00,,,0.00,Wunderground v.1.15,2013-05-04 23:12:00,
2013-05-04 16:14:00,68.4,58.2,29.75,South,186,5.0,9.0,70,0.00,,,0.00,Wunderground v.1.15,2013-05-04 23:14:00,
2013-05-04 16:18:00,68.5,58.3,29.75,SW,214,5.0,9.0,70,0.00,,,0.00,Wunderground v.1.15,2013-05-04 23:18:00,
2013-05-04 16:20:00,68.6,58.8,29.75,East,94,4.0,4.0,71,0.00,,,0.00,Wunderground v.1.15,2013-05-04 23:20:00,
2013-05-04 16:22:00,68.6,58.4,29.75,South,170,3.0,4.0,70,0.00,,,0.00,Wunderground v.1.15,2013-05-04 23:22:00,
2013-05-04 16:24:00,68.6,58.4,29.75,SSW,207,3.0,4.0,70,0.00,,,0.00,Wunderground v.1.15,2013-05-04 23:24:00,
2013-05-04 16:28:00,68.2,58.0,29.75,South,173,4.0,4.0,70,0.00,,,0.00,Wunderground v.1.15,2013-05-04 23:28:00,
2013-05-04 16:30:00,68.1,57.9,29.75,South,180,3.0,12.0,70,0.00,,,0.00,Wunderground v.1.15,2013-05-04 23:30:00,
2013-05-04 16:32:00,67.9,57.8,29.76,SSW,202,4.0,12.0,70,0.00,,,0.00,Wunderground v.1.15,2013-05-04 23:32:00,
2013-05-04 16:36:00,67.4,57.7,29.76,SE,144,4.0,12.0,71,0.00,,,0.00,Wunderground v.1.15,2013-05-04 23:36:00,
2013-05-04 16:38:00,67.0,57.3,29.76,South,188,4.0,12.0,71,0.00,,,0.00,Wunderground v.1.15,2013-05-04 23:38:00,
2013-05-04 16:40:00,66.8,57.9,29.76,South,185,4.0,4.0,73,0.00,,,0.00,Wunderground v.1.15,2013-05-04 23:40:00,
2013-05-04 16:42:00,66.7,57.8,29.76,SW,215,4.0,6.0,73,0.00,,,0.00,Wunderground v.1.15,2013-05-04 23:42:00,
2013-05-04 16:46:00,66.5,57.6,29.76,SSE,159,4.0,6.0,73,0.00,,,0.00,Wunderground v.1.15,2013-05-04 23:46:00,
2013-05-04 16:48:00,66.5,57.6,29.76,South,173,4.0,6.0,73,0.00,,,0.00,Wunderground v.1.15,2013-05-04 23:48:00,
2013-05-04 16:50:00,66.5,57.6,29.76,SSE,155,4.0,5.0,73,0.00,,,0.00,Wunderground v.1.15,2013-05-04 23:50:00,
2013-05-04 16:54:00,66.4,57.5,29.76,South,186,3.0,5.0,73,0.00,,,0.00,Wunderground v.1.15,2013-05-04 23:54:00,
2013-05-04 16:58:00,66.3,57.4,29.76,SSE,164,3.0,5.0,73,0.00,,,0.00,Wunderground v.1.15,2013-05-04 23:58:00,
2013-05-04 17:04:00,66.0,57.5,29.76,South,178,4.0,6.0,74,0.00,,,0.00,Wunderground v.1.15,2013-05-05 00:04:00,
2013-05-04 17:06:00,65.8,57.3,29.76,SW,217,5.0,6.0,74,0.00,,,0.00,Wunderground v.1.15,2013-05-05 00:06:00,
2013-05-04 17:08:00,65.8,57.3,29.76,SSE,156,4.0,6.0,74,0.00,,,0.00,Wunderground v.1.15,2013-05-05 00:08:00,
2013-05-04 17:10:00,65.6,57.5,29.76,South,175,5.0,5.0,75,0.00,,,0.00,Wunderground v.1.15,2013-05-05 00:10:00,
2013-05-04 17:14:00,65.5,57.4,29.76,SSE,159,4.0,5.0,75,0.00,,,0.00,Wunderground v.1.15,2013-05-05 00:14:00,
2013-05-04 17:18:00,65.6,57.5,29.76,SSW,207,4.0,5.0,75,0.00,,,0.00,Wunderground v.1.15,2013-05-05 00:18:00,
2013-05-04 17:20:00,65.6,57.5,29.76,ENE,62,3.0,3.0,75,0.00,,,0.00,Wunderground v.1.15,2013-05-05 00:20:00,
2013-05-04 17:26:00,65.8,57.7,29.77,South,187,3.0,3.0,75,0.00,,,0.00,Wunderground v.1.15,2013-05-05 00:26:00,
2013-05-04 17:28:00,65.8,57.7,29.77,South,174,2.0,3.0,75,0.00,,,0.00,Wunderground v.1.15,2013-05-05 00:28:00,
2013-05-04 17:30:00,65.8,57.3,29.77,SE,130,2.0,5.0,74,0.00,,,0.00,Wunderground v.1.15,2013-05-05 00:30:00,
2013-05-04 17:32:00,65.8,57.3,29.77,SE,128,3.0,5.0,74,0.00,,,0.00,Wunderground v.1.15,2013-05-05 00:32:00,
2013-05-04 17:34:00,65.7,57.2,29.77,SSE,150,2.0,5.0,74,0.00,,,0.00,Wunderground v.1.15,2013-05-05 00:34:00,
2013-05-04 17:36:00,65.7,57.2,29.77,ESE,103,2.0,5.0,74,0.00,,,0.00,Wunderground v.1.15,2013-05-05 00:36:00,
2013-05-04 17:38:00,65.7,57.6,29.77,SSE,167,2.0,5.0,75,0.00,,,0.00,Wunderground v.1.15,2013-05-05 00:38:00,
2013-05-04 17:44:00,65.3,57.5,29.77,SSE,167,3.0,3.0,76,0.00,,,0.00,Wunderground v.1.15,2013-05-05 00:44:00,
2013-05-04 17:46:00,65.2,57.4,29.77,South,184,4.0,4.0,76,0.00,,,0.00,Wunderground v.1.15,2013-05-05 00:46:00,
2013-05-04 17:48:00,65.1,57.3,29.77,SE,143,4.0,4.0,76,0.00,,,0.00,Wunderground v.1.15,2013-05-05 00:48:00,
2013-05-04 17:50:00,65.0,57.2,29.77,East,98,4.0,4.0,76,0.00,,,0.00,Wunderground v.1.15,2013-05-05 00:50:00,
2013-05-04 17:56:00,65.0,57.2,29.76,South,169,3.0,9.0,76,0.00,,,0.00,Wunderground v.1.15,2013-05-05 00:56:00,
2013-05-04 17:58:00,65.0,57.2,29.76,SSE,150,3.0,9.0,76,0.00,,,0.00,Wunderground v.1.15,2013-05-05 00:58:00,
2013-05-04 18:00:00,65.1,57.3,29.76,South,169,3.0,3.0,76,0.00,,,0.00,Wunderground v.1.15,2013-05-05 01:00:00,
2013-05-04 18:02:00,65.0,56.9,29.76,SSE,150,3.0,3.0,75,0.00,,,0.00,Wunderground v.1.15,2013-05-05 01:02:00,
2013-05-04 18:04:00,65.0,57.2,29.76,South,180,2.0,3.0,76,0.00,,,0.00,Wunderground v.1.15,2013-05-05 01:04:00,
2013-05-04 18:08:00,64.9,56.8,29.76,SSE,154,3.0,4.0,75,0.00,,,0.00,Wunderground v.1.15,2013-05-05 01:08:00,
2013-05-04 18:10:00,64.7,56.6,29.76,SE,133,3.0,3.0,75,0.00,,,0.00,Wunderground v.1.15,2013-05-05 01:10:00,
2013-05-04 18:12:00,64.7,56.6,29.76,South,178,3.0,5.0,75,0.00,,,0.00,Wunderground v.1.15,2013-05-05 01:12:00,
2013-05-04 18:14:00,64.6,56.5,29.76,South,169,3.0,5.0,75,0.00,,,0.00,Wunderground v.1.15,2013-05-05 01:14:00,
2013-05-04 18:18:00,64.5,56.4,29.76,South,174,3.0,5.0,75,0.00,,,0.00,Wunderground v.1.15,2013-05-05 01:18:00,
2013-05-04 18:20:00,64.4,56.3,29.76,SE,144,3.0,4.0,75,0.00,,,0.00,Wunderground v.1.15,2013-05-05 01:20:00,
2013-05-04 18:26:00,64.3,56.2,29.76,SSE,167,2.0,4.0,75,0.00,,,0.00,Wunderground v.1.15,2013-05-05 01:26:00,
2013-05-04 18:28:00,64.3,56.6,29.76,SSE,161,2.0,4.0,76,0.00,,,0.00,Wunderground v.1.15,2013-05-05 01:28:00,
2013-05-04 18:30:00,64.2,56.8,29.76,SE,144,3.0,3.0,77,0.00,,,0.00,Wunderground v.1.15,2013-05-05 01:30:00,
2013-05-04 18:32:00,64.1,56.7,29.76,SSE,159,3.0,3.0,77,0.00,,,0.00,Wunderground v.1.15,2013-05-05 01:32:00,
2013-05-04 18:34:00,64.0,56.6,29.76,South,173,3.0,3.0,77,0.00,,,0.00,Wunderground v.1.15,2013-05-05 01:34:00,
2013-05-04 18:38:00,64.0,56.3,29.77,South,171,3.0,4.0,76,0.00,,,0.00,Wunderground v.1.15,2013-05-05 01:38:00,
2013-05-04 18:40:00,63.9,56.5,29.77,SSE,151,3.0,9.0,77,0.00,,,0.00,Wunderground v.1.15,2013-05-05 01:40:00,
2013-05-04 18:44:00,63.8,56.4,29.77,SSE,155,3.0,9.0,77,0.00,,,0.00,Wunderground v.1.15,2013-05-05 01:44:00,
2013-05-04 18:48:00,63.7,56.4,29.77,South,186,3.0,9.0,77,0.00,,,0.00,Wunderground v.1.15,2013-05-05 01:48:00,
2013-05-04 18:50:00,63.6,56.3,29.77,SSE,149,3.0,4.0,77,0.00,,,0.00,Wunderground v.1.15,2013-05-05 01:50:00,
2013-05-04 18:52:00,63.5,55.8,29.77,ESE,119,3.0,4.0,76,0.00,,,0.00,Wunderground v.1.15,2013-05-05 01:52:00,
2013-05-04 18:56:00,63.3,56.0,29.78,South,170,4.0,5.0,77,0.00,,,0.00,Wunderground v.1.15,2013-05-05 01:56:00,
2013-05-04 18:58:00,63.2,55.9,29.77,SSE,157,4.0,5.0,77,0.00,,,0.00,Wunderground v.1.15,2013-05-05 01:58:00,
2013-05-04 19:00:00,63.2,55.9,29.77,South,177,3.0,3.0,77,0.00,,,0.00,Wunderground v.1.15,2013-05-05 02:00:00,
2013-05-04 19:04:00,63.1,56.1,29.77,SSE,147,2.0,6.0,78,0.00,,,0.00,Wunderground v.1.15,2013-05-05 02:04:00,
2013-05-04 19:08:00,63.1,56.1,29.77,SSW,205,2.0,6.0,78,0.00,,,0.00,Wunderground v.1.15,2013-05-05 02:08:00,
2013-05-04 19:10:00,63.1,56.1,29.78,ESE,119,2.0,4.0,78,0.00,,,0.00,Wunderground v.1.15,2013-05-05 02:10:00,
2013-05-04 19:12:00,63.1,56.1,29.77,SE,128,2.0,6.0,78,0.00,,,0.00,Wunderground v.1.15,2013-05-05 02:12:00,
2013-05-04 19:16:00,63.1,56.1,29.78,SSE,161,3.0,6.0,78,0.00,,,0.00,Wunderground v.1.15,2013-05-05 02:16:00,
2013-05-04 19:18:00,63.1,56.1,29.78,South,177,2.0,6.0,78,0.00,,,0.00,Wunderground v.1.15,2013-05-05 02:18:00,
2013-05-04 19:20:00,63.1,56.5,29.78,East,99,2.0,2.0,79,0.00,,,0.00,Wunderground v.1.15,2013-05-05 02:20:00,
2013-05-04 19:22:00,63.2,56.6,29.78,South,182,2.0,4.0,79,0.00,,,0.00,Wunderground v.1.15,2013-05-05 02:22:00,
2013-05-04 19:24:00,63.2,56.6,29.78,SSE,164,2.0,4.0,79,0.00,,,0.00,Wunderground v.1.15,2013-05-05 02:24:00,
2013-05-04 19:28:00,63.2,56.6,29.78,South,184,2.0,9.0,79,0.00,,,0.00,Wunderground v.1.15,2013-05-05 02:28:00,
2013-05-04 19:30:00,63.1,56.8,29.78,WSW,243,3.0,6.0,80,0.00,,,0.00,Wunderground v.1.15,2013-05-05 02:30:00,
2013-05-04 19:32:00,63.0,56.7,29.78,South,183,3.0,6.0,80,0.00,,,0.00,Wunderground v.1.15,2013-05-05 02:32:00,
2013-05-04 19:34:00,62.9,56.6,29.78,South,184,3.0,6.0,80,0.00,,,0.00,Wunderground v.1.15,2013-05-05 02:34:00,
2013-05-04 19:38:00,62.8,56.5,29.78,SSE,160,3.0,6.0,80,0.00,,,0.00,Wunderground v.1.15,2013-05-05 02:38:00,
2013-05-04 19:40:00,62.7,56.8,29.78,South,185,3.0,3.0,81,0.00,,,0.00,Wunderground v.1.15,2013-05-05 02:40:00,
2013-05-04 19:42:00,62.7,56.8,29.79,South,189,2.0,3.0,81,0.00,,,0.00,Wunderground v.1.15,2013-05-05 02:42:00,
2013-05-04 19:44:00,62.6,56.7,29.79,South,179,2.0,4.0,81,0.00,,,0.00,Wunderground v.1.15,2013-05-05 02:44:00,
2013-05-04 19:48:00,62.5,56.6,29.79,SSE,166,3.0,5.0,81,0.00,,,0.00,Wunderground v.1.15,2013-05-05 02:48:00,
2013-05-04 19:50:00,62.5,56.6,29.79,SSW,196,2.0,10.0,81,0.00,,,0.00,Wunderground v.1.15,2013-05-05 02:50:00,
2013-05-04 19:54:00,62.3,56.4,29.79,SSW,205,3.0,10.0,81,0.00,,,0.00,Wunderground v.1.15,2013-05-05 02:54:00,
2013-05-04 19:56:00,62.3,56.4,29.79,South,188,3.0,10.0,81,0.00,,,0.00,Wunderground v.1.15,2013-05-05 02:56:00,
2013-05-04 19:58:00,62.2,56.3,29.79,SSW,213,3.0,10.0,81,0.00,,,0.00,Wunderground v.1.15,2013-05-05 02:58:00,
2013-05-04 20:02:00,62.1,56.5,29.79,SW,234,3.0,3.0,82,0.00,,,0.00,Wunderground v.1.15,2013-05-05 03:02:00,
2013-05-04 20:04:00,62.1,56.5,29.79,SW,215,2.0,3.0,82,0.00,,,0.00,Wunderground v.1.15,2013-05-05 03:04:00,
2013-05-04 20:08:00,62.0,56.4,29.80,South,190,2.0,6.0,82,0.00,,,0.00,Wunderground v.1.15,2013-05-05 03:08:00,
2013-05-04 20:12:00,62.0,56.4,29.80,SSW,211,2.0,2.0,82,0.00,,,0.00,Wunderground v.1.15,2013-05-05 03:12:00,
2013-05-04 20:14:00,62.0,56.4,29.80,South,174,2.0,4.0,82,0.00,,,0.00,Wunderground v.1.15,2013-05-05 03:14:00,
2013-05-04 20:18:00,62.0,56.4,29.80,SSE,160,2.0,4.0,82,0.00,,,0.00,Wunderground v.1.15,2013-05-05 03:18:00,
2013-05-04 20:20:00,61.9,56.0,29.80,South,174,2.0,2.0,81,0.00,,,0.00,Wunderground v.1.15,2013-05-05 03:20:00,
2013-05-04 20:22:00,61.9,56.3,29.80,South,174,2.0,2.0,82,0.00,,,0.00,Wunderground v.1.15,2013-05-05 03:22:00,
2013-05-04 20:24:00,61.8,55.9,29.80,SSW,200,3.0,3.0,81,0.00,,,0.00,Wunderground v.1.15,2013-05-05 03:24:00,
2013-05-04 20:28:00,61.7,55.8,29.80,South,186,3.0,3.0,81,0.00,,,0.00,Wunderground v.1.15,2013-05-05 03:28:00,
2013-05-04 20:30:00,61.7,56.1,29.81,South,173,3.0,7.0,82,0.00,,,0.00,Wunderground v.1.15,2013-05-05 03:30:00,
2013-05-04 20:32:00,61.7,56.1,29.81,SSW,205,3.0,7.0,82,0.00,,,0.00,Wunderground v.1.15,2013-05-05 03:32:00,
2013-05-04 20:34:00,61.7,56.1,29.81,South,187,2.0,7.0,82,0.00,,,0.00,Wunderground v.1.15,2013-05-05 03:34:00,
2013-05-04 20:36:00,61.6,56.0,29.81,South,180,2.0,7.0,82,0.00,,,0.00,Wunderground v.1.15,2013-05-05 03:36:00,
2013-05-04 20:42:00,61.6,56.0,29.81,South,188,2.0,2.0,82,0.00,,,0.00,Wunderground v.1.15,2013-05-05 03:42:00,
2013-05-04 20:44:00,61.6,56.0,29.82,SSE,163,2.0,2.0,82,0.00,,,0.00,Wunderground v.1.15,2013-05-05 03:44:00,
2013-05-04 20:48:00,61.5,55.6,29.82,SSW,204,3.0,5.0,81,0.00,,,0.00,Wunderground v.1.15,2013-05-05 03:48:00,
2013-05-04 20:50:00,61.4,55.5,29.82,SSW,196,2.0,2.0,81,0.00,,,0.00,Wunderground v.1.15,2013-05-05 03:50:00,
2013-05-04 20:52:00,61.4,55.5,29.82,SSW,206,2.0,2.0,81,0.00,,,0.00,Wunderground v.1.15,2013-05-05 03:52:00,
2013-05-04 20:56:00,61.3,55.4,29.82,SSW,199,2.0,3.0,81,0.00,,,0.00,Wunderground v.1.15,2013-05-05 03:56:00,
2013-05-04 20:58:00,61.3,55.4,29.82,SSW,196,2.0,3.0,81,0.00,,,0.00,Wunderground v.1.15,2013-05-05 03:58:00,
2013-05-04 21:00:00,61.3,55.4,29.82,SSW,196,1.0,1.0,81,0.00,,,0.00,Wunderground v.1.15,2013-05-05 04:00:00,
2013-05-04 21:02:00,61.3,55.4,29.82,SSE,151,1.0,2.0,81,0.00,,,0.00,Wunderground v.1.15,2013-05-05 04:02:00,
2013-05-04 21:04:00,61.3,55.4,29.82,SSW,194,1.0,2.0,81,0.00,,,0.00,Wunderground v.1.15,2013-05-05 04:04:00,
2013-05-04 21:06:00,61.3,55.4,29.82,SSE,147,2.0,6.0,81,0.00,,,0.00,Wunderground v.1.15,2013-05-05 04:06:00,
2013-05-04 21:10:00,61.2,55.0,29.82,South,181,2.0,2.0,80,0.00,,,0.00,Wunderground v.1.15,2013-05-05 04:10:00,
2013-05-04 21:12:00,61.2,55.0,29.82,SSE,163,2.0,2.0,80,0.00,,,0.00,Wunderground v.1.15,2013-05-05 04:12:00,
2013-05-04 21:18:00,61.2,55.0,29.83,SSW,200,2.0,2.0,80,0.00,,,0.00,Wunderground v.1.15,2013-05-05 04:18:00,
2013-05-04 21:22:00,61.1,54.9,29.83,SE,126,2.0,2.0,80,0.00,,,0.00,Wunderground v.1.15,2013-05-05 04:22:00,
2013-05-04 21:24:00,61.2,55.0,29.83,SSW,202,2.0,2.0,80,0.00,,,0.00,Wunderground v.1.15,2013-05-05 04:24:00,
2013-05-04 21:26:00,61.1,54.9,29.83,SSE,162,1.0,2.0,80,0.00,,,0.00,Wunderground v.1.15,2013-05-05 04:26:00,
2013-05-04 21:28:00,61.1,54.9,29.83,SSE,163,1.0,3.0,80,0.00,,,0.00,Wunderground v.1.15,2013-05-05 04:28:00,
2013-05-04 21:32:00,61.2,55.0,29.83,SSE,151,1.0,1.0,80,0.00,,,0.00,Wunderground v.1.15,2013-05-05 04:32:00,
2013-05-04 21:36:00,61.2,55.0,29.83,SSE,161,1.0,1.0,80,0.00,,,0.00,Wunderground v.1.15,2013-05-05 04:36:00,
2013-05-04 21:38:00,61.1,54.9,29.83,SSE,161,1.0,1.0,80,0.00,,,0.00,Wunderground v.1.15,2013-05-05 04:38:00,
2013-05-04 22:44:00,60.4,54.2,29.84,SSE,153,1.0,1.0,80,0.00,,,0.00,Wunderground v.1.15,2013-05-05 05:44:00,
2013-05-04 22:46:00,60.4,54.2,29.84,East,95,1.0,1.0,80,0.00,,,0.00,Wunderground v.1.15,2013-05-05 05:46:00,
2013-05-04 22:48:00,60.4,54.2,29.84,SE,135,1.0,1.0,80,0.00,,,0.00,Wunderground v.1.15,2013-05-05 05:48:00,
2013-05-04 22:50:00,60.4,54.2,29.84,SE,146,1.0,1.0,80,0.00,,,0.00,Wunderground v.1.15,2013-05-05 05:50:00,
2013-05-04 22:52:00,60.4,54.2,29.84,South,178,1.0,3.0,80,0.00,,,0.00,Wunderground v.1.15,2013-05-05 05:52:00,
2013-05-04 22:54:00,60.4,54.2,29.84,South,178,1.0,1.0,80,0.00,,,0.00,Wunderground v.1.15,2013-05-05 05:54:00,
2013-05-04 22:58:00,60.4,54.2,29.84,South,169,1.0,2.0,80,0.00,,,0.00,Wunderground v.1.15,2013-05-05 05:58:00,
2013-05-04 23:00:00,60.4,54.2,29.84,South,171,1.0,1.0,80,0.00,,,0.00,Wunderground v.1.15,2013-05-05 06:00:00,
2013-05-04 23:02:00,60.4,54.2,29.84,South,171,1.0,3.0,80,0.00,,,0.00,Wunderground v.1.15,2013-05-05 06:02:00,
2013-05-04 23:04:00,60.4,54.2,29.84,SSE,157,1.0,3.0,80,0.00,,,0.00,Wunderground v.1.15,2013-05-05 06:04:00,
2013-05-04 23:06:00,60.4,54.2,29.84,SSE,157,1.0,3.0,80,0.00,,,0.00,Wunderground v.1.15,2013-05-05 06:06:00,
2013-05-04 23:10:00,60.4,54.2,29.84,SSW,200,1.0,1.0,80,0.00,,,0.00,Wunderground v.1.15,2013-05-05 06:10:00,
2013-05-04 23:12:00,60.4,54.2,29.83,SSW,201,1.0,1.0,80,0.00,,,0.00,Wunderground v.1.15,2013-05-05 06:12:00,
2013-05-04 23:14:00,60.4,54.2,29.83,SSW,194,1.0,1.0,80,0.00,,,0.00,Wunderground v.1.15,2013-05-05 06:14:00,
2013-05-04 23:18:00,60.4,54.2,29.83,SE,126,1.0,1.0,80,0.00,,,0.00,Wunderground v.1.15,2013-05-05 06:18:00,
2013-05-04 23:20:00,60.4,53.9,29.84,East,94,1.0,4.0,79,0.00,,,0.00,Wunderground v.1.15,2013-05-05 06:20:00,
2013-05-04 23:22:00,60.5,54.0,29.84,East,87,2.0,4.0,79,0.00,,,0.00,Wunderground v.1.15,2013-05-05 06:22:00,
2013-05-04 23:26:00,60.5,53.6,29.84,SE,131,3.0,6.0,78,0.00,,,0.00,Wunderground v.1.15,2013-05-05 06:26:00,
2013-05-04 23:28:00,60.6,53.7,29.84,East,89,2.0,6.0,78,0.00,,,0.00,Wunderground v.1.15,2013-05-05 06:28:00,
2013-05-04 23:32:00,60.6,53.3,29.84,SE,141,2.0,2.0,77,0.00,,,0.00,Wunderground v.1.15,2013-05-05 06:32:00,
2013-05-04 23:34:00,60.6,53.3,29.84,East,98,2.0,6.0,77,0.00,,,0.00,Wunderground v.1.15,2013-05-05 06:34:00,
2013-05-04 23:38:00,60.7,53.4,29.84,SE,132,2.0,6.0,77,0.00,,,0.00,Wunderground v.1.15,2013-05-05 06:38:00,
2013-05-04 23:41:00,60.7,53.1,29.84,East,84,2.0,2.0,76,0.00,,,0.00,Wunderground v.1.15,2013-05-05 06:41:00,
2013-05-04 23:42:00,60.7,53.1,29.84,SE,134,2.0,2.0,76,0.00,,,0.00,Wunderground v.1.15,2013-05-05 06:42:00,
2013-05-04 23:44:00,60.7,53.1,29.84,East,88,2.0,2.0,76,0.00,,,0.00,Wunderground v.1.15,2013-05-05 06:44:00,